Weather History for Dublin Airport, Ireland

Change the Weather History Date:

Wednesday, November 28, 2012

  Actual Average Record
Temperature  
Mean Temperature 36 °F -  
Max Temperature 42 °F 47 °F - ()
Min Temperature 30 °F 38 °F - ()
Degree Days  
Heating Degree Days 29    
Moisture  
Dew Point 33 °F    
Average Humidity 91    
Maximum Humidity 100    
Minimum Humidity 79    
Precipitation  
Precipitation 0.00 in 0.10 in - ()
Sea Level Pressure  
Sea Level Pressure 30.13 in    
Wind  
Wind Speed 9 mph ()    
Max Wind Speed 14 mph    
Max Gust Speed -    
Visibility 7.0 miles    
Events      
T = Trace of Precipitation, MM = Missing Value Source: Averaged Metar Reports

Daily Weather History Graph

Daily Weather History Graph

Search for Another Location

Airport:

Trip Planner

Search our weather history database for the weather conditions in past years. The results will help you decide how hot, cold, wet, or windy it might be!

Date:

Astronomy

Nov. 28, 2012 Rise Set
Actual Time 8:13 AM GMT 4:12 PM GMT
Civil Twilight 7:32 AM GMT 4:53 PM GMT
Nautical Twilight 6:48 AM GMT 5:37 PM GMT
Astronomical Twilight 6:06 AM GMT 6:19 PM GMT
Moon 4:16 PM GMT (11/28) 7:59 AM GMT (11/28)
Length of Visible Light 9h 21m
Length of Day
7h 58m
Full, 100% of the Moon is Illuminated
Nov 28
Full
Nov 28
Full
Dec 6
Last Quarter
Dec 13
New
Dec 20
First Quarter

Hourly Weather History & Observations

Time (GMT) Temp. Windchill Dew Point Humidity Pressure Visibility Wind Dir Wind Speed Gust Speed Precip Events Conditions
12:00 AM 33 °F - 31 °F 91% 30.14 in 19 mi WNW 11.2 mph - -   Scattered Clouds
12:00 AM 32.0 °F 23.6 °F 32.0 °F 100% 30.09 in 6.2 mi WNW 10.4 mph - N/A   Partly Cloudy
12:30 AM 33.8 °F 25.8 °F 32.0 °F 93% 30.09 in 6.2 mi NW 10.4 mph - N/A   Partly Cloudy
1:00 AM 33.8 °F 25.3 °F 32.0 °F 93% 30.09 in 6.2 mi WNW 11.5 mph - N/A   Partly Cloudy
1:30 AM 33.8 °F 25.8 °F 32.0 °F 93% 30.09 in 6.2 mi WNW 10.4 mph - N/A   Partly Cloudy
2:00 AM 32.0 °F 23.0 °F 32.0 °F 100% 30.09 in 6.2 mi WNW 11.5 mph - N/A   Partly Cloudy
2:30 AM 33.8 °F 25.3 °F 32.0 °F 93% 30.12 in 6.2 mi NW 11.5 mph - N/A   Partly Cloudy
3:00 AM 33.8 °F 26.4 °F 32.0 °F 93% 30.12 in 6.2 mi WNW 9.2 mph - N/A   Partly Cloudy
3:30 AM 32.0 °F 25.6 °F 32.0 °F 100% 30.12 in 6.2 mi WNW 6.9 mph - N/A   Partly Cloudy
4:00 AM 33.8 °F 25.3 °F 32.0 °F 93% 30.12 in 6.2 mi WNW 11.5 mph - N/A   Partly Cloudy
4:30 AM 32.0 °F 24.2 °F 32.0 °F 100% 30.12 in 6.2 mi West 9.2 mph - N/A   Partly Cloudy
5:00 AM 32.0 °F 24.8 °F 30.2 °F 93% 30.12 in 6.2 mi WNW 8.1 mph - N/A   Partly Cloudy
5:30 AM 32.0 °F 25.6 °F 30.2 °F 93% 30.12 in 6.2 mi West 6.9 mph - N/A   Partly Cloudy
6:00 AM 32 °F - 31 °F 97% 30.15 in 19 mi WNW 8.9 mph - -   Scattered Clouds
6:00 AM 32.0 °F 23.6 °F 32.0 °F 100% 30.12 in 6.2 mi WNW 10.4 mph - N/A   Partly Cloudy
6:30 AM 32.0 °F 25.6 °F 30.2 °F 93% 30.12 in 6.2 mi West 6.9 mph - N/A   Partly Cloudy
7:00 AM 32.0 °F 24.8 °F 30.2 °F 93% 30.12 in 6.2 mi WNW 8.1 mph - N/A   Partly Cloudy
7:30 AM 32.0 °F 25.6 °F 32.0 °F 100% 30.12 in 6.2 mi WNW 6.9 mph - N/A   Partly Cloudy
8:00 AM 32.0 °F 23.0 °F 32.0 °F 100% 30.12 in 6.2 mi NW 11.5 mph - N/A   Partly Cloudy
8:30 AM 33.8 °F 26.4 °F 32.0 °F 93% 30.15 in 6.2 mi NW 9.2 mph - N/A   Partly Cloudy
9:00 AM 33.8 °F 25.3 °F 32.0 °F 93% 30.15 in 6.2 mi NW 11.5 mph - N/A   Partly Cloudy
9:30 AM 33.8 °F 26.4 °F 32.0 °F 93% 30.15 in 6.2 mi NW 9.2 mph - N/A   Partly Cloudy
10:00 AM 35.6 °F 28.0 °F 33.8 °F 93% 30.15 in 6.2 mi NW 10.4 mph - N/A   Partly Cloudy
10:30 AM 37.4 °F 30.3 °F 35.6 °F 93% 30.15 in 6.2 mi NW 10.4 mph - N/A   Partly Cloudy
11:00 AM 39.2 °F 33.0 °F 35.6 °F 87% 30.15 in 6.2 mi NW 9.2 mph - N/A   Partly Cloudy
11:30 AM 39.2 °F 33.0 °F 37.4 °F 93% 30.15 in 6.2 mi WNW 9.2 mph - N/A   Partly Cloudy
12:00 PM 41 °F - 37 °F 79% 30.18 in 25 mi WNW 11.2 mph - -   Scattered Clouds
12:00 PM 41.0 °F 35.2 °F 37.4 °F 87% 30.15 in 6.2 mi WNW 9.2 mph - N/A   Partly Cloudy
12:30 PM 41.0 °F 33.9 °F 37.4 °F 87% 30.15 in 6.2 mi NW 12.7 mph - N/A   Partly Cloudy
1:00 PM 41.0 °F 34.7 °F 35.6 °F 81% 30.15 in 6.2 mi NW 10.4 mph - N/A   Partly Cloudy
1:30 PM 42.8 °F 36.6 °F 37.4 °F 81% 30.15 in 6.2 mi NW 11.5 mph - N/A   Partly Cloudy
2:00 PM 41.0 °F 33.5 °F 37.4 °F 87% 30.15 in 6.2 mi NW 13.8 mph - N/A   Partly Cloudy
2:30 PM 41.0 °F 34.3 °F 35.6 °F 81% 30.12 in 6.2 mi NW 11.5 mph - N/A   Partly Cloudy
3:00 PM 41.0 °F 34.3 °F 35.6 °F 81% 30.15 in 6.2 mi NW 11.5 mph - N/A   Partly Cloudy
3:30 PM 41.0 °F 36.4 °F 35.6 °F 81% 30.12 in 6.2 mi West 6.9 mph - N/A   Partly Cloudy
4:00 PM 39.2 °F 32.5 °F 33.8 °F 81% 30.12 in 6.2 mi WNW 10.4 mph - N/A   Partly Cloudy
4:30 PM 35.6 °F 29.2 °F 32.0 °F 87% 30.15 in 6.2 mi WNW 8.1 mph - N/A   Partly Cloudy
5:00 PM 37.4 °F 30.8 °F 32.0 °F 81% 30.15 in 6.2 mi WNW 9.2 mph - N/A   Partly Cloudy
5:30 PM 35.6 °F 28.6 °F 32.0 °F 87% 30.12 in 6.2 mi WNW 9.2 mph - N/A   Partly Cloudy
6:00 PM 35 °F - 32 °F 83% 30.17 in 19 mi WNW 8.9 mph - -   Scattered Clouds
6:00 PM 35.6 °F 28.6 °F 32.0 °F 87% 30.15 in 6.2 mi WNW 9.2 mph - N/A   Partly Cloudy
6:30 PM 33.8 °F 27.0 °F 32.0 °F 93% 30.15 in 6.2 mi West 8.1 mph - N/A   Partly Cloudy
7:00 PM 33.8 °F 26.4 °F 32.0 °F 93% 30.12 in 6.2 mi West 9.2 mph - N/A   Partly Cloudy
7:30 PM 33.8 °F 26.4 °F 32.0 °F 93% 30.12 in 6.2 mi WNW 9.2 mph - N/A   Partly Cloudy
8:00 PM 33.8 °F 27.7 °F 30.2 °F 87% 30.12 in 6.2 mi WNW 6.9 mph - N/A   Partly Cloudy
8:30 PM 33.8 °F 27.0 °F 30.2 °F 87% 30.15 in 6.2 mi WNW 8.1 mph - N/A   Partly Cloudy
9:00 PM 32.0 °F 24.2 °F 30.2 °F 93% 30.12 in 6.2 mi WNW 9.2 mph - N/A   Partly Cloudy
9:30 PM 32.0 °F 23.6 °F 30.2 °F 93% 30.15 in 6.2 mi WNW 10.4 mph - N/A   Partly Cloudy
10:00 PM 32.0 °F 24.2 °F 30.2 °F 93% 30.12 in 6.2 mi WNW 9.2 mph - N/A   Partly Cloudy
10:30 PM 32.0 °F 24.8 °F 30.2 °F 93% 30.12 in 6.2 mi WNW 8.1 mph - N/A   Partly Cloudy
11:00 PM 33.8 °F 25.8 °F 30.2 °F 87% 30.12 in 6.2 mi WNW 10.4 mph - N/A   Partly Cloudy
11:30 PM 33.8 °F 25.3 °F 32.0 °F 93% 30.12 in 6.2 mi WNW 11.5 mph - N/A   Partly Cloudy